Regional Weather Roundup
Issued by NWS

Home | Current Version | Previous Version | Graphics & Text | Print | Product List | Glossary On
Versions: 1 2 3 4 5 6 7 8 9 10 11 12 13 14 15 16 17 18 19 20 21 22 23 24 25 26 27
000
ASUS45 KSLC 172210
RWRUT

UTAH REGIONAL WEATHER ROUNDUP
NATIONAL WEATHER SERVICE SALT LAKE CITY UT
300 PM MST WED JAN 17 2018

UTZ001>011-023>025-172300-

NORTHERN UTAH

CITY           SKY/WX    TMP DP  RH WIND       PRES   REMARKS
BRIGHAM CITY   MOSUNNY   46  26  47 CALM      30.37R
DUGWAY         PTSUNNY   48  30  50 NW2       30.35R
HILL AFB       MOSUNNY   47  27  44 CALM      30.35R
LOGAN          MOSUNNY   47  26  44 N5        30.36R
OGDEN          MOSUNNY   48  29  47 N7        30.34R
SALT LAKE CITY PTSUNNY   54  28  36 VRB5      30.34R
TOOELE VALLEY  MOSUNNY   43  32  65 CALM      30.36R
WENDOVER       PTSUNNY   41  28  60 E6        30.37S
HEBER CITY       N/A     45  25  45 CALM      30.31S
WEST JORDAN    SUNNY     49  28  45 SE3       30.35R

$$

UTZ011>015-024>027-172300-

CENTRAL/NORTHEAST UTAH

CITY           SKY/WX    TMP DP  RH WIND       PRES   REMARKS
PROVO AIRPORT  MOSUNNY   44  28  53 NW8       30.35F
MOAB/CANYONLAN SUNNY     45  16  31 CALM      30.34F
DELTA          SUNNY     46  30  53 CALM      30.33S
PRICE          SUNNY     42  19  39 CALM      30.33F
RICHFIELD      SUNNY     52  28  40 CALM      30.31F
ROOSEVELT      SUNNY     41  10  28 CALM      30.39F
VERNAL         SUNNY     39  10  30 S5        30.37F

$$

UTZ013>016-019>022-027-172300-

SOUTHERN UTAH

CITY           SKY/WX    TMP DP  RH WIND       PRES   REMARKS
BRYCE CANYON   SUNNY     47  27  45 CALM      30.34F
CEDAR CITY     SUNNY     54  30  40 VRB5      30.28F
MILFORD        SUNNY     51  32  48 NE7       30.30F
ST GEORGE      CLEAR     57  29  34 CALM      30.26F
HANKSVILLE     SUNNY     46  16  29 CALM      30.36F
KANAB          SUNNY     59  25  27 E10       30.31F
BLANDING         N/A     48  20  33 S5        30.37F

$$

REGIONAL REPORTS     COLORADO/ARIZONA

CITY           SKY/WX    TMP DP  RH WIND       PRES   REMARKS
CRAIG, CO      SUNNY     34  13  41 SE3       30.36F
GRAND JUNCTION SUNNY     44  12  27 CALM      30.34F
RIFLE, CO      SUNNY     44   6  21 CALM      30.35F
MONTROSE, CO   SUNNY     41  11  29 NW6       30.36F
CORTEZ, CO     SUNNY     43  20  39 SW6       30.29F
COLORADO CITY    N/A     61  28  29 CALM      30.30F
PAGE, AZ       SUNNY     51  18  27 NE5       30.32F
GRAND CANYON   SUNNY     53  22  29 NE9       30.32F
KINGMAN, AZ    SUNNY     65  31  28 N9        30.23F
FLAGSTAFF, AZ  SUNNY     49  19  30 E10       30.31S

$$

REGIONAL REPORTS    NEVADA/IDAHO/WYOMING

CITY           SKY/WX    TMP DP  RH WIND       PRES   REMARKS
LAS VEGAS, NV  PTSUNNY   66  33  29 VRB3      30.22F
ELY, NY        CLOUDY    53  27  36 CALM      30.31F
ELKO, NV       PTSUNNY   45  28  51 CALM      30.33F
POCATELLO, ID  PTSUNNY   43  29  57 N6        30.36S
BURLEY, ID     PTSUNNY   46  32  58 NE9       30.32S
FORT BRIDGER,    N/A     45  25  45 W9        30.33F
EVANSTON, WY   SUNNY     41  27  57 SW7       30.32F
ROCK SPRINGS,  SUNNY     41  22  46 W12       30.31F

$$




USA.gov is the U.S. government's official web portal to all federal, state and local government web resources and services.